Radiation Dose measured at exhaust stack monitor of Fukushima Daiichi Nuclear Power Station
Date,Time,Unit 5 6 shared exhaust cylinders,Wind Direction,Wind Velocity(m/s)
2023/07/11,00:00,3.7,southwest,2.3
2023/07/11,00:10,3.7,southwest,2.9
2023/07/11,00:20,3.9,west-southwest,2.8
2023/07/11,00:30,3.6,west-southwest,2.3
2023/07/11,00:40,3.7,west-southwest,2.2
2023/07/11,00:50,3.8,west,2.6
2023/07/11,01:00,3.6,west-northwest,2.5
2023/07/11,01:10,3.5,west-northwest,2.8
2023/07/11,01:20,3.6,west-northwest,2.6
2023/07/11,01:30,3.6,west-northwest,2.0
2023/07/11,01:40,3.6,west-northwest,2.0
2023/07/11,01:50,3.5,northwest,4.7
2023/07/11,02:00,3.7,northwest,10.8
2023/07/11,02:10,3.6,northwest,10.2
2023/07/11,02:20,3.6,-,CALM
2023/07/11,02:30,3.7,-,CALM
2023/07/11,02:40,3.6,southwest,5.4
2023/07/11,02:50,3.6,south-southwest,2.5
2023/07/11,03:00,3.6,south-southwest,5.9
2023/07/11,03:10,3.8,south-southwest,3.0
2023/07/11,03:20,3.6,south,1.7
2023/07/11,03:30,3.7,south,2.3
2023/07/11,03:40,3.8,south-southeast,2.6
2023/07/11,03:50,3.8,south,2.5
2023/07/11,04:00,3.5,south-southeast,3.7
2023/07/11,04:10,3.7,south,4.3
2023/07/11,04:20,3.7,south,4.7
2023/07/11,04:30,3.7,south,5.6
2023/07/11,04:40,3.8,south,6.1
2023/07/11,04:50,3.6,south-southwest,4.5
2023/07/11,05:00,3.7,south-southwest,3.7
2023/07/11,05:10,3.6,south,4.3
2023/07/11,05:20,3.7,south,4.1
2023/07/11,05:30,3.6,south,3.2
2023/07/11,05:40,3.7,south,2.9
2023/07/11,05:50,3.8,south,3.2
2023/07/11,06:00,3.6,south-southeast,1.9
2023/07/11,06:10,3.6,south-southeast,2.2
2023/07/11,06:20,3.7,south-southeast,1.1
2023/07/11,06:30,3.6,south-southeast,2.3
2023/07/11,06:40,3.8,south-southeast,2.5
2023/07/11,06:50,3.6,south-southeast,3.4
2023/07/11,07:00,3.8,south,2.0
2023/07/11,07:10,3.9,south-southeast,2.3
2023/07/11,07:20,3.6,south-southeast,1.7
2023/07/11,07:30,3.7,south-southeast,3.0
2023/07/11,07:40,3.7,southeast,2.6
2023/07/11,07:50,3.6,east-southeast,2.9
2023/07/11,08:00,3.6,east-southeast,2.3
2023/07/11,08:10,3.6,east-southeast,2.3
2023/07/11,08:20,3.6,southeast,2.3
2023/07/11,08:30,3.7,southeast,2.0
2023/07/11,08:40,3.7,east-southeast,0.9
2023/07/11,08:50,3.6,southeast,0.6
2023/07/11,09:00,3.4,southeast,0.9
2023/07/11,09:10,3.8,southeast,1.2
2023/07/11,09:20,3.6,southeast,2.0
2023/07/11,09:30,3.5,south-southeast,2.2
2023/07/11,09:40,3.7,south-southeast,2.6
2023/07/11,09:50,3.7,southeast,2.3
2023/07/11,10:00,3.7,south-southeast,3.5
2023/07/11,10:10,3.7,southeast,2.9
2023/07/11,10:20,3.7,southeast,3.6
2023/07/11,10:30,3.6,southeast,4.8
2023/07/11,10:40,3.7,southeast,3.9
2023/07/11,10:50,3.6,south-southeast,4.3
2023/07/11,11:00,3.5,southeast,5.8
2023/07/11,11:10,3.5,south-southeast,5.6
2023/07/11,11:20,3.6,south-southeast,6.9
2023/07/11,11:30,3.7,south-southeast,5.9
2023/07/11,11:40,3.5,south-southeast,5.5
2023/07/11,11:50,3.6,south-southeast,5.6
2023/07/11,12:00,3.7,south-southeast,5.1
2023/07/11,12:10,3.7,south-southeast,4.1
2023/07/11,12:20,3.7,south-southeast,2.5
2023/07/11,12:30,3.7,south,1.4
2023/07/11,12:40,3.6,south-southeast,2.9
2023/07/11,12:50,3.7,southwest,4.1
2023/07/11,13:00,3.5,west-southwest,5.0
2023/07/11,13:10,3.7,west-southwest,5.3
2023/07/11,13:20,3.6,southwest,2.3
2023/07/11,13:30,3.6,south,4.8
2023/07/11,13:40,3.7,south-southeast,7.0
2023/07/11,13:50,3.6,south,6.0
2023/07/11,14:00,3.8,south,6.3
2023/07/11,14:10,3.7,south,4.1
2023/07/11,14:20,3.7,south,3.4
2023/07/11,14:30,3.6,south,5.8
2023/07/11,14:40,3.7,south,5.4
2023/07/11,14:50,3.7,south,4.6
2023/07/11,15:00,3.7,south,5.7
2023/07/11,15:10,3.8,south,6.1
2023/07/11,15:20,3.7,south-southeast,5.7
2023/07/11,15:30,3.5,south,6.1
2023/07/11,15:40,3.6,south,6.9
2023/07/11,15:50,3.7,south,5.7
2023/07/11,16:00,3.8,south,5.5
2023/07/11,16:10,3.6,south,6.7
2023/07/11,16:20,3.5,south,5.6
2023/07/11,16:30,3.4,south,5.5
2023/07/11,16:40,3.7,south-southwest,5.1
2023/07/11,16:50,3.8,southwest,5.2
2023/07/11,17:00,3.5,west,7.0
2023/07/11,17:10,3.7,west-southwest,6.0
2023/07/11,17:20,3.7,west-southwest,5.6
2023/07/11,17:30,3.7,west-southwest,5.7
2023/07/11,17:40,3.7,west-southwest,5.3
2023/07/11,17:50,3.6,west,5.7
2023/07/11,18:00,3.5,west-southwest,5.4
2023/07/11,18:10,3.7,west-southwest,3.7
2023/07/11,18:20,3.6,west-southwest,1.7
2023/07/11,18:30,3.6,north,0.8
2023/07/11,18:40,3.6,southeast,0.9
2023/07/11,18:50,3.8,south,1.2
2023/07/11,19:00,3.7,south,1.5
2023/07/11,19:10,3.7,south-southwest,1.7
2023/07/11,19:20,3.6,south-southwest,2.3
2023/07/11,19:30,3.5,southwest,2.0
2023/07/11,19:40,3.8,southwest,2.6
2023/07/11,19:50,3.4,west-southwest,2.6
2023/07/11,20:00,3.5,west-southwest,2.6
2023/07/11,20:10,3.7,west-southwest,2.0
2023/07/11,20:20,3.5,south-southeast,1.7
2023/07/11,20:30,3.7,south-southeast,2.2
2023/07/11,20:40,3.7,south-southeast,3.8
2023/07/11,20:50,3.7,south-southeast,3.4
2023/07/11,21:00,3.7,south,4.1
2023/07/11,21:10,3.8,south,4.0
2023/07/11,21:20,3.7,south,3.7
2023/07/11,21:30,3.7,south,4.2
2023/07/11,21:40,3.7,south,3.0
2023/07/11,21:50,3.7,south-southwest,2.2
2023/07/11,22:00,3.6,southwest,1.1
2023/07/11,22:10,3.7,southwest,1.7
2023/07/11,22:20,3.6,southwest,2.0
2023/07/11,22:30,3.6,west,2.0
2023/07/11,22:40,3.7,west,2.5
2023/07/11,22:50,3.7,west-northwest,4.6
2023/07/11,23:00,3.6,west,4.7
2023/07/11,23:10,3.4,west-southwest,4.4
2023/07/11,23:20,3.6,west-southwest,4.5
2023/07/11,23:30,3.5,west-southwest,4.1
2023/07/11,23:40,3.6,west-southwest,4.4
2023/07/11,23:50,3.6,west-southwest,4.0
